Regional Weather Roundup
Issued by NWS Upton, NY

Current Version | Previous Version | Text Only | Print | Product List | Glossary On
Versions: 1 2 3 4 5 6 7 8 9 10 11 12 13 14 15 16 17 18 19 20 21 22 23 24 25 26 27 28 29 30 31 32 33 34 35 36 37 38 39 40 41 42 43 44 45 46 47 48 49 50
000 ASUS41 KOKX 051608 RWROKX REGIONAL WEATHER ROUNDUP NATIONAL WEATHER SERVICE NEW YORK NY 1200 PM EDT SUN JUL 05 2015 NOTE: "FAIR" INDICATES FEW OR NO CLOUDS BELOW 12,000 FEET WITH NO SIGNIFICANT WEATHER AND/OR OBSTRUCTIONS TO VISIBILITY. NYZ071-072-176-178-NJZ106-104-051700- NEW YORK CITY METRO AREA CITY SKY/WX TMP DP RH WIND PRES REMARKS CENTRAL PARK SUNNY 79 62 56 CALM 30.15F LAGUARDIA APRT PTSUNNY 79 61 53 CALM 30.12S KENNEDY INTL PTSUNNY 79 62 56 S13 30.14R NEWARK/LIBERTY PTSUNNY 79 62 56 W6 30.12F BRNX BOT. GARD N/A N/A N/A N/A NW6 30.14S TETERBORO MOSUNNY 81 61 50 VRB3 30.11F $$ NYZ177-179-078>081-051700- LONG ISLAND NEW YORK CITY SKY/WX TMP DP RH WIND PRES REMARKS FARMINGDALE MOSUNNY 79 61 53 W7 30.12F ISLIP PTSUNNY 79 60 52 W7 30.10F SHIRLEY PTSUNNY 78 63 59 S9 30.13S WESTHAMPTON MOSUNNY 78 63 59 S8 30.13S MONTAUK POINT N/A 76 63 64 W7 30.12F $$ NYZ052-065-067-051700- HUDSON VALLEY CITY SKY/WX TMP DP RH WIND PRES REMARKS WHITE PLAINS MOSUNNY 77 62 59 CALM 30.13S NEWBURGH MOSUNNY 75 64 69 CALM 30.15S MONTGOMERY SUNNY 77 62 59 CALM 30.12F POUGHKEEPSIE SUNNY 77 60 55 CALM 30.12S ALBANY MOSUNNY 78 61 55 CALM 30.11F $$ NJZ001-105-106-008-010-013-015-019>022-104-051700- NEW JERSEY CITY SKY/WX TMP DP RH WIND PRES REMARKS NEWARK/LIBERTY PTSUNNY 79 62 56 W6 30.12F TETERBORO MOSUNNY 81 61 50 VRB3 30.11F CALDWELL MOSUNNY 77 62 59 CALM 30.13F MORRISTOWN PTSUNNY 79 66 65 N6 30.14S SOMERVILLE MOSUNNY 76 64 66 CALM 30.12S SUSSEX SUNNY 76 63 64 CALM 30.14F ANDOVER N/A 76 65 68 VRB3 30.15F TRENTON MOSUNNY 78 64 61 N3 30.14F MILLVILLE PTSUNNY 77 64 64 S3 30.16R ATLANTIC CITY CLOUDY 78 64 61 S5 30.15S WRIGHTSTOWN MOSUNNY 79 64 61 SW7 30.13S TOMS RIVER MOSUNNY 81 61 50 CALM 30.15S BELMAR MOSUNNY 79 61 53 N3 30.14S $$ PAZ047>061-062-071-051700- EASTERN PENNSYLVANIA CITY SKY/WX TMP DP RH WIND PRES REMARKS PHILADELPHIA PTSUNNY 79 62 56 S5 30.15S ALLENTOWN MOSUNNY 73 63 70 CALM 30.16S SCRANTON SUNNY 71 59 65 SW3 30.18S $$ CTZ002-004>006-009-010-012-RIZ004-006-007-MAZ004-011-015-051700- SOUTHERN NEW ENGLAND IN CT CITY SKY/WX TMP DP RH WIND PRES REMARKS BRADLEY INTL MOSUNNY 79 63 57 VRB5 30.09S HARTFORD MOSUNNY 78 64 61 SE10 30.09F DANBURY SUNNY 76 61 59 VRB3 30.14S WTRBRY/OXFORD SUNNY 75 63 64 NW7 30.15S BRIDGEPORT SUNNY 75 63 66 SW14 30.12S MERIDEN SUNNY 79 62 56 VRB5 30.10F NEW HAVEN MOSUNNY 72 64 76 SW9 30.12S CHESTER FAIR 77 63 61 W5 30.12S GROTON SUNNY 73 63 70 SW14 30.10S WILLIMANTIC SUNNY 77 62 59 W6 30.10S IN RI CITY SKY/WX TMP DP RH WIND PRES REMARKS PROVIDENCE MOSUNNY 79 60 52 CALM 30.08S BLOCK ISLAND SUNNY 75 63 64 SW14 30.11S WESTERLY SUNNY 74 62 66 SW10 30.11R IN MA CITY SKY/WX TMP DP RH WIND PRES REMARKS BOSTON NOT AVBL WORCESTER SUNNY 76 58 53 W9 30.12R WESTFIELD SUNNY 80 61 52 CALM 30.10S PROVINCETOWN SUNNY 79 18 10 W8 30.08R NANTUCKET SUNNY 70 62 76 SW16 30.09F $$ ANZ330-335-338-340-345-350-353-355-051700- COASTAL MARINE OBSERVATIONS STATION/POSITION TIME SKY/WX TEMP WIND PRES VSBY WAVE AIR SEA DIR/SP/G HT/PER (UTC) (F) (DEG/KT/KT) (MB) (MI) (FT/S) NY HARB ENTRANCE 1550 71 71 210/ 6/ 6 1020.2 4/ 8 4S FIRE IS 1503 70 N/A 4/ 8 20S FIRE ISLAND 1550 70 70 240/ 6/ 8 1020.4 4/ 8 GREAT SOUTH BAY 1500 73 76 230/ 8/ 8 N/A 23SW MTP 1550 69 69 240/ 10/ 12 1019.8 4/ 8 HUDSON CANYON NOT AVBL KINGS POINT 1500 76 69 CALM / 1 1019.5 CENTRAL LI SOUND NOT AVBL EASTERN LI SOUND 1500 67 64 240/ 8/ 12 N/A ROBBINS REEF 1500 74 250/ 3/ 4 1019.2 $$ >>>>>>>>>>>>>>>>>>>>>>>>>>>> KEY <<<<<<<<<<<<<<<<<<<<<<<<<<< > < > SKY/WX - SKY CONDITION/PRESENT WEATHER < > TMP - TEMPERATURE IN FAHRENHEIT < > DP - DEWPOINT IN FAHRENHEIT < > RH - RELATIVE HUMIDITY IN PERCENT < > WIND - DIRECTION AND SPEED IN MPH < > PRES - MEAN SEA LEVEL PRESSURE IN INCHES OF HG < > WCI - WIND CHILL INDEX < > VSB - VISIBILITY IN MILES < > HX - HEAT INDEX < > TC - TEMPERATURE IN CELSIUS < > VRB - VARIABLE WIND DIRECTION < > < >>>>>>>>>>>>>>>>>>>>>>>>>>>> KEY <<<<<<<<<<<<<<<<<<<<<<<<<<<

USA.gov is the U.S. government's official web portal to all federal, state and local government web resources and services.